Location: Burland Observatory
(39.4088°N, 105.4217°W)
Time: 17:22:31
(UTC-07:00)

SR - Pass Details

Date: 16 December 2019
Orbit: 574 x 882 km, 66.7° (Epoch: 27 January)

Event Time Altitude Azimuth Distance (km) Brightness Sun altitude
Rises 09:44:54 0° 264° (W) 3,329 ? 20.1°
Reaches altitude 10° 09:48:29 10° 288° (WNW) 2,454 ? 20.4°
Maximum altitude 09:51:35 15° 321° (NW) 2,175 ? 20.7°
Drops below altitude 10° 09:54:45 10° 354° (N) 2,522 ? 21.0°
Sets 09:58:33 0° 17° (NNE) 3,482 ? 21.4°
